This is the latest recevied weather packets stored in our database for station/object KQ4PPF. If no packets are shown the sender has not sent any weather packets the latest 10 day(s).
| Time | Temp. | Humidity | Pressure | Rain* | Wind** | Luminosity | Snow |
|---|---|---|---|---|---|---|---|
| 1777742052 | 17.78° C | 40% | 1015.2 hPa | 0 mm | - | 324 W/m² | - |
| 1777741750 | 17.78° C | 36% | 1015 hPa | 0 mm | - | 502 W/m² | - |
| 1777741446 | 17.22° C | 39% | 1015.3 hPa | 0 mm | - | 622 W/m² | - |
| 1777741142 | 16.67° C | 39% | 1015.1 hPa | 0 mm | - | 905 W/m² | - |
| 1777740839 | 16.67° C | 38% | 1015.2 hPa | 0 mm | - | 564 W/m² | - |
| 1777740536 | 16.67° C | 40% | 1015.3 hPa | 0 mm | - | 367 W/m² | - |
| 1777740233 | 16.67° C | 39% | 1015.2 hPa | 0 mm | - | 342 W/m² | - |
| 1777739929 | 16.67° C | 40% | 1015.4 hPa | 0 mm | - | 389 W/m² | - |
| 1777739626 | 16.67° C | 41% | 1015.4 hPa | 0 mm | - | 744 W/m² | - |
| 1777739323 | 16.11° C | 43% | 1015.4 hPa | 0 mm | - | 526 W/m² | - |
| 1777739019 | 16.11° C | 43% | 1015.4 hPa | 0 mm | - | 276 W/m² | - |
| 1777738717 | 16.11° C | 43% | 1015.5 hPa | 0 mm | - | 304 W/m² | - |
| 1777738413 | 16.11° C | 41% | 1015.6 hPa | 0 mm | - | 271 W/m² | - |
| 1777738111 | 16.11° C | 43% | 1015.5 hPa | 0 mm | - | 275 W/m² | - |
| 1777737810 | 15.56° C | 43% | 1015.4 hPa | 0 mm | - | 293 W/m² | - |
| 1777737508 | 15.56° C | 43% | 1015.3 hPa | 0 mm | - | 308 W/m² | - |
| 1777737206 | 16.11° C | 43% | 1015.3 hPa | 0 mm | - | 272 W/m² | - |
| 1777736902 | 16.11° C | 43% | 1015.5 hPa | 0 mm | - | 432 W/m² | - |
| 1777736294 | 15.56° C | 44% | 1015.5 hPa | 0 mm | - | 315 W/m² | - |
| 1777735990 | 15.56° C | 42% | 1015.5 hPa | 0 mm | - | 301 W/m² | - |
| 1777735688 | 15.56° C | 46% | 1015.3 hPa | 0 mm | - | 272 W/m² | - |
| 1777735385 | 15.56° C | 44% | 1015.3 hPa | 0 mm | - | 235 W/m² | - |
| 1777735082 | 15° C | 46% | 1015.3 hPa | 0 mm | - | 239 W/m² | - |
| 1777734779 | 15.56° C | 44% | 1015.1 hPa | 0 mm | - | 194 W/m² | - |
| 1777734477 | 15.56° C | 45% | 1015.2 hPa | 0 mm | - | 239 W/m² | - |
* Rain latest hour (hover to see other rain measurements)
** Current wind speed in m/s (hover to see current wind gust speed)